Tracking 25710 objects as of 5-Jul-2022
HD Live streaming from Space Station
objects crossing your sky now

FENGYUN 1C DEB

Track FENGYUN 1C DEB now!
10-day predictions


NORAD ID: 32088
Int'l Code: 1999-025CQE
Perigee: 864.2 km
Apogee: 1,527.5 km
Inclination: 102.4 °
Period: 109.2 minutes
Semi major axis: 7566 km
RCS: 0.0006 m2 (small)
Launch date: May 10, 1999
Source: People's Republic of China (PRC)
Launch site: Taiyaun Space Center, China (TSC)

Note: This is SATELLITE DEBRIS
aabbcc
Your satellite tracking list
Your tracking list is empty




NASA's NSSDC Master Catalog

Two Line Element Set (TLE):
1 32088U 99025CQE 22185.65470831  .00000842  00000-0  13796-2 0  9990
2 32088 102.3862 162.4795 0438265 150.4553 212.2102 13.18955698432374
Source of the keplerian elements: AFSPC